CW5324 Weather Reports


time (UTC)temp
F
wind
direction
speed
knots
gust
knots
rain 1hr
in
rain 24hr
in
rain mn
in
humidity
%
barometer
mb
20260504174515 72 0.0 0.0 0.00 0.00 0.00 25
20260504173520 71 0.0 0.0 0.00 0.00 0.00 26
20260504172520 71 0.0 0.0 0.00 0.00 0.00 28
20260504171521 71 0.0 0.0 0.00 0.00 0.00 26
20260504170520 71 0.0 0.0 0.00 0.00 0.00 26
20260504150520 66 0.0 0.0 0.00 0.00 0.00 29
20260504140520 64 0.0 0.0 0.00 0.00 0.00 36
20260504130540 59 0.0 0.0 0.00 0.00 0.00 44
20260504110515 47 0.0 0.0 0.00 0.00 0.00 60
20260504100520 45 0.0 0.0 0.00 0.00 0.00 62
20260504081520 45 0.0 0.0 0.00 0.00 0.00 64
20260504080520 46 0.0 0.0 0.00 0.00 0.00 64
20260504050540 48 0.0 0.0 0.00 0.00 0.00 51
20260504045520 48 0.0 0.0 0.00 0.00 0.00 53
20260504044520 48 0.0 0.0 0.00 0.00 0.00 53
20260504043541 48 0.0 0.0 0.00 0.00 0.00 52
20260504042520 48 0.0 0.0 0.00 0.00 0.00 51
20260504041517 49 0.0 0.0 0.00 0.00 0.00 51
20260504040515 49 0.0 0.0 0.00 0.00 0.00 52
20260504035521 49 0.0 0.0 0.00 0.00 0.00 48
20260504034522 49 0.0 0.0 0.00 0.00 0.00 48
20260504033521 49 0.0 0.0 0.00 0.00 0.00 47
20260504032516 50 0.0 0.0 0.00 0.00 0.00 44
20260504031522 50 0.0 0.0 0.00 0.00 0.00 43
20260504030521 50 0.0 0.0 0.00 0.00 0.00 42
20260504025522 50 0.0 0.0 0.00 0.00 0.00 40
20260504024522 51 0.0 0.0 0.00 0.00 0.00 39
20260504023542 51 0.0 0.0 0.00 0.00 0.00 38
20260504022601 51 0.0 0.0 0.00 0.00 0.00 36
20260504021516 52 0.0 0.0 0.00 0.00 0.00 36
20260504020542 52 0.0 0.0 0.00 0.00 0.00 34
20260504015521 52 0.0 0.0 0.00 0.00 0.00 32
20260504014522 52 0.0 0.0 0.00 0.00 0.00 32
20260504013522 53 0.0 0.0 0.00 0.00 0.00 30
20260504012522 53 0.0 0.0 0.00 0.00 0.00 30
20260504011517 53 0.0 0.0 0.00 0.00 0.00 29
20260504010516 53 0.0 0.0 0.00 0.00 0.00 29
20260504005521 53 0.0 0.0 0.00 0.00 0.00 28
20260504004521 53 0.0 0.0 0.00 0.00 0.00 29
20260504003522 53 0.0 0.0 0.00 0.00 0.00 28
20260504002522 53 0.0 0.0 0.00 0.00 0.00 29
20260504001521 54 0.0 0.0 0.00 0.00 0.00 31
20260504000516 54 0.0 0.0 0.00 0.00 0.00 33
20260503235556 55 0.0 0.0 0.00 0.00 0.00 32
20260503234522 56 0.0 0.0 0.00 0.00 0.00 30
20260503233521 56 0.0 0.0 0.00 0.00 0.00 30
20260503232521 56 0.0 0.0 0.00 0.00 0.00 30
20260503231521 56 0.0 0.0 0.00 0.00 0.00 30
20260503230521 56 0.0 0.0 0.00 0.00 0.00 30
20260503225516 56 0.0 0.0 0.00 0.00 0.00 30
20260503224516 56 0.0 0.0 0.00 0.00 0.00 29
20260503223542 56 0.0 0.0 0.00 0.00 0.00 29
20260503222541 56 0.0 0.0 0.00 0.00 0.00 30
20260503221521 55 0.0 0.0 0.00 0.00 0.00 31
20260503220520 55 0.0 0.0 0.00 0.00 0.00 31
20260503215521 55 0.0 0.0 0.00 0.00 0.00 31
20260503214516 55 0.0 0.0 0.00 0.00 0.00 32
20260503213521 55 0.0 0.0 0.00 0.00 0.00 31
20260503212521 56 0.0 0.0 0.00 0.00 0.00 30
20260503211541 55 0.0 0.0 0.00 0.00 0.00 31
20260503210521 55 0.0 0.0 0.00 0.00 0.00 31
20260503205522 54 0.0 0.0 0.00 0.00 0.00 31
20260503204521 55 0.0 0.0 0.00 0.00 0.00 30
20260503203516 54 0.0 0.0 0.00 0.00 0.00 31
20260503202522 55 0.0 0.0 0.00 0.00 0.00 30
20260503201521 54 0.0 0.0 0.00 0.00 0.00 33
20260503200542 54 0.0 0.0 0.00 0.00 0.00 32
20260503195522 54 0.0 0.0 0.00 0.00 0.00 31
20260503194521 54 0.0 0.0 0.00 0.00 0.00 31
20260503193521 54 0.0 0.0 0.00 0.00 0.00 31
20260503192516 55 0.0 0.0 0.00 0.00 0.00 31
20260503191522 54 0.0 0.0 0.00 0.00 0.00 31
20260503190541 54 0.0 0.0 0.00 0.00 0.00 32
20260503185521 54 0.0 0.0 0.00 0.00 0.00 33
20260503184521 54 0.0 0.0 0.00 0.00 0.00 33
20260503183521 54 0.0 0.0 0.00 0.00 0.00 35
20260503182516 54 0.0 0.0 0.00 0.00 0.00 33
20260503181516 55 0.0 0.0 0.00 0.00 0.00 33
20260503180542 55 0.0 0.0 0.00 0.00 0.00 34
20260503175521 55 0.0 0.0 0.00 0.00 0.00 34